SHIJIAN-16 (SJ-16)

Last updated on Mon Sep 21 2026 00:02:09 GMT+0000 (Coordinated Universal Time)

1 39358U 13057A 26263.61298567 .00001116 00000+0 11053-3 0 9998 2 39358 74.9732 175.9237 0015807 354.4136 5.6874 14.92790074700586
UTC large
Height (km)
Speed (km/s)
/
Latitude / Longitude
Inclination (degrees)
Orbital Period (minutes)
Azimuth
Elevation
Range (km)
Doppler Factor

Next 0 passes for location: London (51.5072 / 0.1276)

No passes found over London.
SHIJIAN-16 (SJ-16)